Location: Zagreb
(45.8000°N, 16.0000°E)
Time: 15:47:27
(UTC+02:00)

Vanguard 1 - Pass Details

Date: 10 August 2022
Orbit: 649 x 3832 km, 34.2° (Epoch: 25 September)

Event Time Altitude Azimuth Distance (km) Brightness Sun altitude
Rises 05:40:35 0° 234° (SW) 6,011 - -2.3°
Exits shadow 05:41:02 - 233° (SW) 5,923 13.4 -2.2°
Reaches altitude 10° 05:44:05 10° 229° (SW) 5,357 13.2 -1.7°
Maximum altitude 06:00:55 53° 159° (SSE) 4,078 13.3 1.0°
Drops below altitude 10° 06:23:02 10° 92° (E) 6,853 16.0 4.6°
Sets 06:28:16 0° 88° (E) 7,719 16.5 5.5°
